Weather in Mokeyevskoye

Russia / Yaroslavl Oblast     57°29′19″N   40°06′24″E
temp.,
°C
wind,
m/s
gust,
m/s
humid.,
%
clouds,
%
prec.,
mm/h
press.,
hPa
HPBL,
m
8 august, mon
mon800:00+16nnw2497100 0.2 1020141
03:00+15nne3696100 0.6 1020298
06:00+14nne2596100 0.2 1022234
09:00+15nne3592100 0.7 1022287
12:00+17nne447952 0.3 1022538
15:00+21nne326499 0.4 10221042
18:00+18n447271 0.0 1022430
21:00+14n259196 0.0 1022107
9 august, tue
tue900:00+13nne249492 0.0 102364
03:00+12nne2494100 0.0 102279
06:00+13ene1289100 0.1 102395
09:00+16nne3578100 0.4 1022365
12:00+18ene2476100 0.6 1021516
15:00+16sse3390100 2.5 1021180
18:00+17sse118999 0.6 102142
21:00+15nnw228874 0.6 102126
10 august, wed
wed1000:00+12n35915 0.0 102180
03:00+11n229274 0.0 102224
06:00+11nnw25927 0.0 1022120
09:00+18n35631 0.0 1022550
12:00+22nnw444213 0.0 10212054
15:00+21nw454695 0.0 10211379
18:00+20nnw36469 0.0 1022998
21:00+14nnw38650 0.0 1023170
11 august, thu
thu1100:00+11nnw23795 0.0 102336
03:00+10nw22850 0.0 102418
06:00+11nw23790 0.0 102586
09:00+18nnw23505 0.0 1025541
12:00+22nw23350 0.0 10251843
15:00+24wnw33334 0.0 10232021
18:00+22wnw343912 0.0 10231064
21:00+16wsw3357100 0.0 102327
12 august, fri
fri1200:00+14sw376184 0.0 1023116
03:00+14sw3968100 0.0 1023161
06:00+14wsw3969100 0.0 1024196
09:00+21w475035 0.0 1024530
12:00+25w563722 0.0 10231483
15:00+26w563683 0.0 10221724
18:00+25w464352 0.0 10211089
21:00+19wsw356615 0.0 102273